Location: Unspecified
(0.0000°N, 0.0000°E)
Time: 02:30:57
(UTC+00:00)

ISS - Pass Details

Date: 12 March 2026
Orbit: 417 x 426 km, 51.6° (Epoch: 16 March)

Event Time Altitude Azimuth Distance (km) Brightness Sun altitude
Exits shadow 04:35:53 41° 128° (SE) 613 -2.6 -23.4°
Drops below altitude 10° 04:38:13 10° 140° (SE) 1,487 -0.4 -22.9°
Sets 04:40:19 0° 142° (SE) 2,353 0.7 -22.3°
